Date String (YYYY-MM-DD hh:mm:ss) UTC,Instrument flags,Ambient pressure (hPa),Sample flow (lpm),Bypass flow (lpm),Sample temperature (°C),Ambient temperature (°C),ASC tube jacket temperature (°C),LED temperature (°C),Box temperature (°C),Sample RH (%),Span deviation,Mass concentration (μg/m³),Mass concentration (μg/m³),Mass concentration (μg/m³)
DateTimeUTC,F1_M11,P_M11,Q1_M11,Q2_M11,T1_M11,T2_M11,T3_M11,T4_M11,T5_M11,U1_M11,ZSPAN_M11,X0_M11,X2_M11,X1_M11
2022-01-16 02:00:00,,0827.1,5.00,0.00,24.3,23.6,00.0,33.4,26.1,09.0,0000.6,0012.39,0007.64,0006.96
2022-01-16 02:01:00,,0827.1,4.99,0.00,24.3,23.6,00.0,33.4,26.1,08.9,0000.6,0012.74,0007.70,0007.02
2022-01-16 02:02:00,,0827.0,5.02,0.00,24.3,23.5,00.0,33.3,26.0,09.1,0000.2,0013.26,0007.82,0007.09
2022-01-16 02:03:00,,0826.9,4.99,0.00,24.2,23.4,00.0,33.3,25.9,09.1,-000.2,0013.22,0007.85,0007.13
2022-01-16 02:04:00,,0826.9,5.00,0.00,24.2,23.4,00.0,33.3,25.9,09.0,-000.7,0013.04,0007.89,0007.19
2022-01-16 02:05:00,,0827.0,5.02,0.00,24.2,23.5,00.0,33.3,26.0,09.0,-001.2,0012.74,0007.86,0007.18
2022-01-16 02:06:00,,0827.0,4.99,0.00,24.2,23.5,00.0,33.3,26.0,09.0,-000.9,0013.12,0007.83,0007.19
2022-01-16 02:07:00,,0826.9,5.02,0.00,24.2,23.5,00.0,33.3,26.0,08.8,0000.0,0013.35,0007.98,0007.32
2022-01-16 02:08:00,,0826.9,4.98,0.00,24.2,23.5,00.0,33.3,25.9,07.9,0000.0,0013.99,0007.99,0007.28
2022-01-16 02:09:00,,0826.9,5.00,0.00,24.2,23.4,00.0,33.2,25.9,07.2,0000.0,0013.55,0007.67,0007.03
2022-01-16 02:10:00,,0827.0,5.01,0.00,24.1,23.4,00.0,33.2,25.9,07.3,0000.0,0013.08,0007.35,0006.72
2022-01-16 02:11:00,,0826.9,5.00,0.00,24.1,23.4,00.0,33.2,25.8,07.7,0000.0,0012.74,0007.04,0006.46
2022-01-16 02:12:00,,0826.9,5.01,0.00,24.1,23.3,00.0,33.2,25.7,08.4,0000.0,0012.93,0006.91,0006.32
2022-01-16 02:13:00,,0826.9,4.99,0.00,24.0,23.2,00.0,33.2,25.6,07.9,0000.0,0014.25,0006.75,0006.17
2022-01-16 02:14:00,,0826.9,5.01,0.00,24.0,23.2,00.0,33.1,25.6,07.8,0000.0,0014.36,0006.55,0005.99
2022-01-16 02:15:00,,0826.9,4.99,0.00,23.9,23.1,00.0,33.1,25.5,08.1,0000.0,0014.83,0006.33,0005.79
2022-01-16 02:16:00,,0826.8,5.00,0.00,23.8,22.9,00.0,33.1,25.4,08.3,0000.0,0014.75,0006.16,0005.60
2022-01-16 02:17:00,,0826.9,5.00,0.00,23.8,22.9,00.0,33.0,25.3,08.2,0000.0,0014.08,0005.94,0005.38
2022-01-16 02:18:00,,0826.8,5.00,0.00,23.7,22.9,00.0,33.0,25.3,08.0,0000.0,0013.64,0005.67,0005.16
2022-01-16 02:19:00,,0826.8,5.01,0.00,23.7,22.9,00.0,33.0,25.3,08.2,0000.0,0012.99,0005.61,0005.12
2022-01-16 02:20:00,,0826.9,5.01,0.00,23.7,22.9,00.0,32.9,25.3,08.3,0000.0,0013.25,0005.81,0005.27
2022-01-16 02:21:00,,0826.7,5.00,0.00,23.7,22.9,00.0,32.9,25.3,08.3,0000.0,0013.50,0005.99,0005.40
2022-01-16 02:22:00,,0826.8,4.99,0.00,23.7,22.9,00.0,32.9,25.4,08.6,0000.0,0013.60,0006.14,0005.52
2022-01-16 02:23:00,,0826.8,5.02,0.00,23.7,22.9,00.0,32.9,25.4,08.7,0000.0,0013.13,0006.13,0005.54
2022-01-16 02:24:00,,0826.8,4.99,0.00,23.7,23.0,00.0,32.9,25.4,08.7,0000.0,0012.18,0006.19,0005.61
2022-01-16 02:25:00,,0826.7,5.00,0.00,23.7,23.0,00.0,32.8,25.4,07.9,0000.0,0011.93,0006.28,0005.70
2022-01-16 02:26:00,,0826.7,4.99,0.00,23.7,23.0,00.0,32.8,25.4,06.2,0000.0,0011.08,0006.15,0005.59
2022-01-16 02:27:00,,0826.7,5.01,0.00,23.6,22.9,00.0,32.8,25.3,05.9,0000.0,0010.96,0005.95,0005.42
2022-01-16 02:28:00,,0826.7,4.99,0.00,23.6,22.9,00.0,32.8,25.3,06.2,0000.0,0010.79,0005.74,0005.26
2022-01-16 02:29:00,,0826.8,5.00,0.00,23.6,22.9,00.0,32.8,25.3,05.7,0000.0,0010.55,0005.55,0005.08
2022-01-16 02:30:00,,0826.9,5.01,0.00,23.6,22.9,00.0,32.8,25.3,05.8,0000.0,0010.28,0005.32,0004.88
2022-01-16 02:31:00,,0826.8,4.99,0.00,23.6,22.8,00.0,32.7,25.2,05.0,0000.0,0009.79,0004.97,0004.57
2022-01-16 02:32:00,,0826.8,5.01,0.00,23.5,22.8,00.0,32.7,25.2,04.8,0000.0,0009.29,0004.58,0004.25
2022-01-16 02:33:00,,0826.7,5.00,0.00,23.5,22.8,00.0,32.7,25.2,05.0,0000.0,0008.83,0004.20,0003.92
2022-01-16 02:34:00,,0826.8,5.01,0.00,23.5,22.8,00.0,32.7,25.2,05.2,0000.0,0007.86,0003.84,0003.60
2022-01-16 02:35:00,,0826.7,4.99,0.00,23.6,22.9,00.0,32.7,25.3,05.1,0000.0,0005.52,0003.45,0003.26
2022-01-16 02:36:00,,0826.7,5.00,0.00,23.6,22.9,00.0,32.7,25.3,04.6,0000.0,0004.30,0002.94,0002.71
2022-01-16 02:37:00,,0826.7,5.03,0.00,23.6,22.9,00.0,32.6,25.3,04.6,0000.0,0003.91,0002.62,0002.36
2022-01-16 02:38:00,,0826.7,4.99,0.00,23.6,22.9,00.0,32.6,25.3,04.6,0000.0,0003.31,0002.37,0002.16
2022-01-16 02:39:00,,0826.7,5.01,0.00,23.5,22.9,00.0,32.6,25.2,04.6,0000.0,0002.57,0002.10,0001.89
2022-01-16 02:40:00,,0826.7,4.99,0.00,23.6,22.9,00.0,32.6,25.3,05.8,0000.0,0002.59,0002.08,0001.83
2022-01-16 02:41:00,,0826.9,5.00,0.00,23.6,22.9,00.0,32.6,25.3,07.6,0000.0,0003.03,0002.37,0002.10
2022-01-16 02:42:00,,0826.9,5.00,0.00,23.6,22.9,00.0,32.6,25.3,08.2,0000.0,0003.65,0002.98,0002.70
2022-01-16 02:43:00,,0827.0,5.01,0.00,23.6,23.0,00.0,32.6,25.4,07.8,0000.0,0004.40,0003.44,0003.26
2022-01-16 02:44:00,,0826.8,5.00,0.00,23.6,23.0,00.0,32.6,25.4,07.0,0000.0,0004.97,0003.71,0003.52
2022-01-16 02:45:00,,0826.8,5.01,0.00,23.6,23.0,00.0,32.6,25.5,06.2,0000.0,0005.50,0003.84,0003.65
2022-01-16 02:46:00,,0826.9,4.99,0.00,23.6,23.0,00.0,32.6,25.5,07.0,0000.0,0006.74,0004.00,0003.79
2022-01-16 02:47:00,,0827.0,5.01,0.00,23.7,23.1,00.0,32.6,25.5,08.0,0000.0,0007.43,0004.42,0004.18
2022-01-16 02:48:00,,0826.8,4.99,0.00,23.7,23.0,00.0,32.6,25.5,06.7,0000.0,0007.69,0004.65,0004.42
2022-01-16 02:49:00,,0826.8,5.01,0.00,23.7,23.1,00.0,32.6,25.5,06.2,0000.0,0007.96,0004.82,0004.58
2022-01-16 02:50:00,,0827.1,4.99,0.00,23.7,23.1,00.0,32.6,25.5,06.1,0000.0,0008.21,0004.99,0004.73
2022-01-16 02:51:00,,0826.9,5.01,0.00,23.7,23.1,00.0,32.6,25.5,07.2,0000.0,0008.28,0005.14,0004.90
2022-01-16 02:52:00,,0826.8,5.01,0.00,23.7,23.1,00.0,32.6,25.5,06.3,0000.0,0008.28,0005.09,0004.86
2022-01-16 02:53:00,,0826.8,4.99,0.00,23.7,23.1,00.0,32.6,25.5,06.6,0000.0,0008.15,0004.91,0004.68
2022-01-16 02:54:00,,0826.7,5.00,0.00,23.7,23.1,00.0,32.6,25.5,06.5,0000.0,0007.99,0004.73,0004.49
2022-01-16 02:55:00,,0826.7,4.99,0.00,23.7,23.1,00.0,32.6,25.5,06.3,0000.0,0007.91,0004.63,0004.37
2022-01-16 02:56:00,,0826.8,5.01,0.00,23.7,23.1,00.0,32.6,25.5,06.3,0000.0,0007.86,0004.62,0004.34
2022-01-16 02:57:00,,0826.8,4.99,0.00,23.7,23.0,00.0,32.6,25.4,06.6,0000.0,0008.00,0004.69,0004.38
2022-01-16 02:58:00,,0826.7,5.02,0.00,23.6,23.0,00.0,32.6,25.3,06.1,0000.0,0007.94,0004.47,0004.17
2022-01-16 02:59:00,,0826.8,4.98,0.00,23.6,23.0,00.0,32.6,25.3,05.5,0000.0,0007.79,0004.30,0003.98
